Wind_Speed
48 47 47 46 45 45 45 45 45 44 44 43 43 44 43 43 44 44 44 45 45 46 47 47 48 48 48 48 48 48 48 48 48 49 49 48 48 49
49 48 48 47 46 46 46 46 46 45 44 44 44 44 44 44 44 45 45 46 47 47 48 48 49 49 49 49 49 50 50 50 50 51 51 50 50 50
50 50 50 50 50 49 48 48 47 46 46 46 46 45 45 45 45 46 47 48 48 48 49 49 49 50 51 51 51 51 51 51 52 53 53 53 52 52
51 51 51 51 52 51 50 49 49 48 48 47 47 46 46 47 47 47 48 49 49 50 50 50 51 51 52 52 52 52 52 53 53 54 55 55 55 54
52 52 52 52 52 53 52 51 50 50 49 49 48 48 48 48 48 49 50 50 50 51 51 52 52 53 53 53 54 54 54 54 55 55 56 56 56 55
54 54 54 54 54 54 53 52 52 51 50 50 50 49 49 50 50 50 51 51 52 52 52 53 53 53 53 54 54 54 54 54 55 56 57 57 57 57
55 55 55 56 56 55 54 53 53 53 52 52 51 50 50 50 51 51 52 53 53 52 53 53 53 53 53 53 54 54 54 55 56 56 57 57 57 57
55 56 55 56 56 55 54 54 55 54 53 52 52 51 50 51 51 52 52 52 52 53 53 53 53 53 53 53 53 54 55 55 56 56 56 57 57 58
55 55 56 56 55 55 55 55 56 55 54 53 53 53 52 52 52 52 52 51 52 52 53 53 53 53 54 54 54 55 55 56 56 56 57 57 57 57
54 54 54 55 54 54 54 54 55 54 54 54 53 53 53 52 52 52 52 53 53 53 53 53 53 54 54 54 54 55 55 56 56 57 57 58 57 57
53 53 53 52 53 53 53 53 53 53 53 53 53 53 53 53 53 53 53 54 53 53 53 54 54 54 54 54 55 55 56 57 57 57 57 57 56 56
51 50 51 51 51 52 52 52 52 52 53 53 53 53 53 52 53 54 54 54 54 53 53 53 53 54 54 54 54 55 56 56 57 56 56 55 55 55
49 49 49 49 50 51 51 51 51 53 53 53 52 52 53 53 53 53 53 54 54 54 53 53 53 54 54 54 54 55 55 56 56 55 55 55 55 54
48 48 48 49 50 51 51 51 52 52 52 52 52 52 52 52 52 52 52 52 53 53 54 54 54 54 54 54 54 54 54 55 55 54 54 54 54 54
46 47 48 49 50 50 51 52 52 52 52 53 52 52 52 52 52 52 52 52 52 53 53 53 53 53 53 53 53 53 53 53 53 53 53 53 52 53
46 46 47 47 48 49 50 50 50 51 52 52 53 53 53 53 53 53 52 52 52 52 52 52 52 52 53 53 53 53 53 52 52 52 52 52 52 52
44 45 46 47 48 48 49 49 49 50 50 51 52 52 53 53 53 52 52 52 52 52 52 52 53 53 53 52 52 52 51 51 51 51 51 52 52 52
44 44 45 46 47 47 48 48 49 49 49 50 50 51 52 52 53 53 53 52 52 52 51 51 51 51 51 51 51 51 51 51 51 51 51 51 51 50
43 43 44 44 45 46 46 47 47 47 48 48 49 49 50 51 52 52 52 52 52 51 51 51 51 51 51 50 50 51 51 51 51 51 51 50 50 49
42 42 42 43 43 44 44 45 45 46 46 47 47 48 48 49 50 50 50 50 50 50 50 50 50 51 51 51 50 50 51 51 51 50 50 50 49 48
40 41 41 41 42 42 42 43 43 44 45 46 46 47 48 49 49 49 49 49 49 49 49 49 50 50 51 50 50 49 50 50 50 50 49 48 47 46
39 39 40 40 40 41 42 42 43 44 45 46 46 47 48 48 48 48 48 48 48 48 48 49 49 49 49 49 49 49 49 49 49 48 48 47 46 45
36 37 38 39 40 40 41 42 43 44 44 45 45 45 46 46 47 47 47 47 48 48 49 49 49 49 48 48 48 47 47 47 47 46 46 45 44 44
Wind_Direction
256 257 258 260 260 261 262 263 264 264 265 268 269 271 270 270 270 270 270 270 270 270 270 270 270 271 271 272 272 273 273 273 274 275 275 275 275 275
256 257 258 260 261 261 262 264 264 265 266 268 269 269 270 270 270 271 271 271 271 271 271 271 271 271 271 271 272 272 273 273 274 275 275 275 275 275
257 259 260 260 261 262 263 263 264 265 266 267 268 268 269 270 271 271 272 272 272 272 272 272 272 272 272 272 272 272 273 274 275 275 276 276 275 275
257 258 260 261 262 263 263 264 264 265 266 267 268 269 270 270 271 271 272 272 272 272 272 272 272 272 272 271 271 272 273 274 274 275 275 275 275 275
257 259 260 261 262 262 262 263 264 265 266 267 267 268 270 271 271 272 273 273 272 272 272 273 273 273 272 272 272 272 273 274 275 274 275 275 275 275
258 260 260 261 262 262 262 263 264 265 265 266 267 268 269 270 272 272 273 273 273 272 272 273 273 273 272 272 272 272 273 274 274 275 275 275 275 275
260 260 260 261 261 262 263 263 263 264 265 266 267 268 270 270 272 273 274 274 273 273 273 273 274 273 273 273 273 273 273 274 275 275 275 275 275 275
260 260 260 260 260 261 262 262 263 264 265 266 267 268 270 271 273 273 274 274 274 273 273 274 274 274 274 274 274 274 274 275 275 275 275 275 275 275
258 259 260 261 260 260 260 261 262 264 265 266 267 268 270 271 272 273 274 275 274 273 273 274 274 275 275 274 274 275 275 276 276 276 276 276 277 277
259 260 260 261 260 260 260 261 262 263 264 265 266 268 269 271 272 273 273 274 274 274 274 274 274 275 275 276 276 276 276 276 276 276 276 277 277 277
259 259 260 260 260 260 261 261 261 262 263 265 267 268 269 271 272 273 274 274 274 274 274 274 274 274 275 276 276 276 276 276 276 276 277 278 277 277
259 259 259 260 260 260 260 261 261 261 263 265 267 268 269 270 272 273 273 274 274 274 275 275 275 274 275 276 276 276 276 276 276 277 277 277 277 278
258 259 260 260 260 261 260 261 262 262 263 265 266 268 269 271 272 273 273 273 274 275 275 275 275 275 276 276 276 276 277 276 277 276 277 277 277 278
260 260 260 261 261 261 261 262 263 264 265 265 267 268 269 271 272 272 272 273 274 275 275 276 276 276 276 277 276 276 276 276 276 276 277 277 277 278
260 261 261 261 262 262 262 263 264 264 265 266 267 268 269 269 271 272 273 273 273 274 275 276 276 275 275 276 275 275 275 275 276 276 276 277 277 278
261 262 262 262 263 263 264 264 264 265 265 266 267 269 269 270 271 271 272 272 273 274 274 275 275 275 275 275 276 277 277 276 276 276 277 278 278 278
263 264 263 263 264 264 265 266 266 266 266 267 268 269 269 270 271 272 272 273 273 274 274 274 275 275 276 277 277 277 277 277 277 277 277 278 279 279
263 264 264 265 266 265 265 266 267 267 268 268 269 270 270 270 271 271 273 273 274 274 275 275 275 276 276 277 277 277 277 277 277 277 277 278 279 279
265 265 266 266 267 267 266 267 268 268 269 270 270 270 271 271 271 272 273 273 274 274 275 275 275 276 277 277 277 277 277 277 277 277 277 278 278 277
265 266 267 267 268 268 268 268 268 269 270 271 272 272 271 272 272 273 273 274 274 274 274 275 276 276 277 277 276 277 277 277 277 277 277 277 277 276
266 267 268 269 269 269 269 269 270 271 271 271 272 273 273 273 274 274 274 274 274 274 275 275 276 276 277 277 277 277 277 277 277 277 277 276 275 275
267 268 269 269 270 269 270 270 271 272 272 272 273 274 274 274 274 274 274 274 274 275 276 276 276 277 277 277 277 277 277 276 276 276 276 275 275 274
268 268 269 270 270 271 271 272 273 273 274 274 274 274 274 274 274 273 274 274 274 275 276 277 277 277 277 278 277 277 277 276 276 275 275 275 275 274
Height
5685 5687 5689 5691 5692 5693 5695 5696 5698 5699 5700 5701 5701 5701 5701 5701 5702 5702 5703 5703 5703 5703 5703 5703 5703 5703 5703 5703 5703 5703 5703 5703 5702 5702 5702 5701 5701 5700
5673 5675 5677 5679 5680 5681 5682 5684 5685 5686 5688 5689 5689 5689 5689 5689 5689 5690 5690 5690 5690 5690 5690 5689 5689 5689 5689 5689 5690 5689 5689 5689 5689 5688 5688 5688 5687 5687
5660 5662 5664 5666 5667 5669 5670 5671 5672 5674 5675 5677 5677 5677 5677 5677 5677 5677 5677 5677 5677 5677 5676 5676 5676 5676 5675 5675 5676 5676 5675 5675 5675 5674 5673 5673 5673 5673
5647 5649 5651 5652 5654 5656 5657 5658 5659 5661 5662 5664 5664 5664 5664 5664 5664 5664 5664 5664 5664 5664 5663 5662 5662 5661 5661 5661 5661 5661 5661 5661 5660 5660 5659 5659 5658 5657
5633 5635 5637 5639 5640 5642 5643 5645 5646 5647 5649 5650 5651 5651 5651 5651 5651 5651 5650 5650 5650 5650 5649 5648 5647 5647 5646 5646 5646 5646 5646 5646 5645 5644 5643 5643 5643 5642
5619 5621 5623 5625 5626 5628 5629 5631 5632 5633 5635 5636 5637 5638 5638 5637 5637 5637 5637 5636 5636 5635 5635 5634 5633 5632 5632 5631 5631 5631 5631 5630 5629 5629 5628 5627 5627 5626
5603 5605 5608 5610 5611 5613 5615 5616 5618 5619 5620 5622 5623 5624 5623 5623 5623 5623 5622 5622 5621 5620 5620 5619 5619 5618 5617 5616 5616 5615 5615 5614 5614 5613 5612 5611 5611 5610
5588 5590 5592 5594 5596 5598 5599 5601 5603 5604 5606 5607 5608 5609 5609 5609 5609 5608 5608 5607 5607 5607 5605 5605 5604 5603 5602 5601 5600 5600 5599 5598 5598 5597 5596 5595 5594 5593
5573 5575 5576 5578 5580 5582 5584 5586 5587 5589 5591 5592 5593 5594 5594 5594 5594 5594 5593 5592 5592 5591 5590 5590 5588 5588 5587 5586 5585 5584 5583 5582 5581 5581 5580 5578 5577 5576
5558 5560 5562 5563 5564 5566 5569 5570 5572 5574 5575 5577 5578 5578 5578 5578 5578 5578 5578 5577 5577 5576 5575 5575 5574 5573 5571 5570 5569 5568 5567 5566 5565 5564 5563 5562 5560 5559
5543 5545 5547 5548 5550 5551 5554 5556 5557 5559 5560 5561 5562 5562 5563 5563 5562 5562 5562 5562 5562 5561 5559 5559 5559 5557 5556 5555 5553 5552 5551 5550 5549 5548 5546 5545 5544 5542
5529 5531 5532 5534 5534 5536 5538 5540 5542 5544 5545 5546 5547 5547 5548 5547 5547 5547 5547 5547 5546 5546 5545 5544 5543 5541 5541 5540 5538 5536 5535 5533 5532 5531 5530 5528 5527 5526
5515 5517 5518 5519 5520 5521 5523 5526 5527 5529 5530 5531 5532 5532 5532 5532 5532 5531 5531 5531 5531 5530 5530 5528 5527 5525 5524 5525 5523 5521 5519 5518 5516 5515 5513 5512 5511 5510
5501 5503 5504 5505 5506 5507 5509 5511 5512 5514 5515 5516 5516 5517 5517 5517 5517 5516 5516 5515 5515 5514 5513 5512 5511 5510 5509 5508 5507 5506 5504 5502 5501 5500 5498 5496 5495 5494
5488 5489 5490 5491 5492 5493 5495 5496 5497 5498 5499 5500 5501 5501 5502 5502 5501 5501 5500 5500 5499 5498 5497 5496 5495 5494 5493 5492 5491 5490 5489 5487 5486 5484 5483 5481 5480 5479
5474 5475 5476 5477 5478 5479 5480 5481 5482 5483 5484 5485 5486 5486 5486 5486 5486 5485 5485 5485 5484 5483 5481 5479 5478 5478 5477 5476 5475 5474 5473 5472 5471 5469 5468 5466 5465 5463
5460 5461 5462 5463 5464 5465 5466 5467 5468 5468 5469 5470 5470 5470 5470 5470 5470 5470 5469 5469 5468 5468 5466 5464 5463 5462 5461 5460 5459 5458 5457 5456 5455 5454 5452 5451 5450 5448
5447 5448 5449 5450 5450 5451 5452 5453 5453 5454 5454 5455 5455 5455 5455 5455 5455 5454 5454 5453 5453 5451 5450 5449 5448 5447 5446 5445 5444 5442 5441 5440 5439 5438 5437 5436 5435 5433
5434 5435 5436 5436 5437 5437 5438 5439 5439 5440 5440 5440 5440 5440 5440 5440 5439 5439 5438 5438 5437 5436 5435 5433 5432 5431 5431 5430 5429 5427 5425 5424 5423 5422 5421 5420 5419 5418
5421 5422 5423 5423 5424 5424 5424 5425 5425 5425 5426 5426 5426 5425 5425 5425 5424 5424 5423 5422 5421 5420 5419 5418 5417 5416 5415 5414 5413 5412 5409 5408 5407 5406 5406 5405 5404 5403
5409 5410 5410 5410 5411 5411 5411 5411 5411 5412 5412 5411 5411 5411 5410 5410 5409 5408 5407 5406 5406 5405 5404 5403 5401 5400 5399 5398 5397 5397 5395 5393 5391 5391 5390 5390 5390 5389
5397 5397 5397 5398 5398 5398 5398 5398 5398 5398 5397 5397 5397 5396 5395 5395 5394 5393 5392 5392 5391 5390 5389 5388 5386 5385 5384 5383 5382 5381 5380 5378 5377 5376 5375 5375 5375 5376
5385 5385 5385 5385 5385 5385 5385 5385 5384 5384 5383 5383 5382 5382 5381 5380 5379 5379 5378 5377 5376 5375 5374 5373 5371 5370 5369 5368 5367 5366 5365 5364 5363 5362 5361 5360 5361 5361